Location: Fort Wayne
(41.1310°N, 85.1290°W)
Time: 02:55:59

ISS - Visible Passes

Search period start: 24 October 2016 00:00
Search period end: 03 November 2016 00:00
Orbit: 400 x 408 km, 51.6° (Epoch: 24 October)

Date Brightness Start Highest point End Pass type
(mag) Time Alt. Az. Time Alt. Az. Time Alt. Az.
30 Oct 0.1 07:18:07 10° SSE 07:19:14 11° SE 07:20:21 10° ESE visible
01 Nov -1.1 07:07:38 10° SSW 07:10:26 27° SE 07:13:15 10° ENE visible
02 Nov -0.4 06:16:19 10° SSE 06:18:08 14° SE 06:19:58 10° E visible
